Flag for Guinea Weather past 2 weeks in Boké, Guinea

Now
82 °F

Partly sunny.


Feels Like: 89 °F
Forecast: 74 / 83 °F
Wind: 12 mph from South

Location: Conakry / Gbessia

Current Time: Aug 30, 2015 at 12:06:56 PM

Latest Report: Aug 30, 2015 at 11:00 AM


Visibility: N/A

Pressure: 30.01 "Hg

Humidity: 79%

Dew point: 75 °F

Location of BokéLocation

Historic Weather in Boké — Graph

°F

Boké temperature yesterday

Maximum temperature yesterday: 77 °F (at 8:00 AM)
Minimum temperature yesterday: 75 °F (at 10:00 AM)
Average temperature yesterday: 76 °F

Past Weeks' High & Low Weather Summary

 TemperatureHumidityPressure
High86 °F (Aug 26, 2:00 PM)100% (Aug 15, 8:00 PM)30.01 "Hg (Aug 15, 8:00 PM)
Low73 °F (Aug 22, 7:00 AM)70% (Aug 25, 3:00 PM)29.83 "Hg (Aug 19, 3:00 PM)
Average79 °F91%29.91 "Hg
* Reported Aug 15 10:00 AM — Aug 30 10:00 AM, Boké, Weather by CustomWeather, © 2015

Note: Actual official high and low records may vary slightly from our data, if they occured in-between our weather recording intervals... More about our weather records

Advertising

Boké weather history for previous 24 hours

 ConditionsComfort  
Time TempWeatherWind HumidityBarometerVisibility
10:00 AM
Sun, Aug 30
81 °FPartly sunny.14 mph84%30.01 "HgN/A
8:00 AM75 °FLight rain. Partly sunny.12 mph100%29.98 "Hg5 mi
7:00 AM75 °FLight rain. Partly sunny.12 mph100%29.95 "Hg5 mi
6:00 AM75 °FPartly cloudy.7 mph100%29.95 "HgN/A
5:00 AM75 °FPartly cloudy.12 mph100%29.95 "HgN/A
4:00 AM77 °FPartly cloudy.9 mph94%29.92 "HgN/A
3:00 AM79 °FPartly cloudy.14 mph94%29.92 "HgN/A
2:00 AM77 °FLight rain. Passing clouds.16 mph94%29.95 "Hg5 mi
1:00 AM77 °FLight rain. Passing clouds.12 mph94%29.98 "Hg5 mi
12:00 AM77 °FLight rain. Passing clouds.14 mph94%29.98 "Hg5 mi
6:00 PM
Sat, Aug 29
77 °FLight rain. Mostly cloudy.7 mph94%29.89 "Hg5 mi
5:00 PM75 °FThunderstorms. Mostly cloudy.14 mph100%29.89 "Hg3 mi
4:00 PM75 °FThunderstorms. Mostly cloudy.18 mph100%29.89 "Hg2 mi
3:00 PM75 °FThunderstorms. Mostly cloudy.7 mph100%29.92 "Hg1 mi
2:00 PM75 °FThunderstorms. Mostly cloudy.18 mph100%29.92 "Hg1 mi
1:00 PM75 °FThunderstorms. Mostly cloudy.18 mph100%29.95 "Hg2 mi
Weather by CustomWeather, © 2015

See weather overviewHow to use our weather pages